Location: Frankfurt+(oder)
(51.7984°N, 12.2168°E)
Time: 05:57:21
(UTC+01:00)

ISS - Pass Details

Date: 09 January 2018
Orbit: 401 x 406 km, 51.6° (Epoch: 17 January)

Event Time Altitude Azimuth Distance (km) Brightness Sun altitude
Exits shadow 07:22:57 - 274° (W) 1,545 -1.5 -7.8°
Reaches altitude 10° 07:23:10 10° 272° (W) 1,467 -1.6 -7.8°
Maximum altitude 07:26:06 30° 209° (SSW) 751 -2.5 -7.4°
Drops below altitude 10° 07:29:02 10° 146° (SE) 1,463 0.1 -7.0°
Sets 07:31:15 0° 135° (SE) 2,321 1.7 -6.7°
